Location: Newark
(34.1333°N, 7.9667°W)
Time: 22:08:12
(UTC+00:00)

Cosmos 1503 - Visible Passes

Search period start: 26 February 2024 00:00
Search period end: 07 March 2024 00:00
Orbit: 773 x 792 km, 74.0° (Epoch: 26 February)

Date Brightness Start Highest point End Pass type
(mag) Time Alt. Az. Time Alt. Az. Time Alt. Az.
26 Feb 5.6 04:49:16 75° E 04:49:16 75° E 04:54:28 10° NNE visible
26 Feb 7.3 06:30:06 10° W 06:32:03 12° WNW 06:34:02 10° NW visible
27 Feb 6.9 04:18:13 36° ENE 04:18:13 36° ENE 04:21:44 10° NNE visible
27 Feb 6.9 05:58:50 19° WNW 05:59:12 19° WNW 06:02:57 10° NNW visible
28 Feb 7.9 03:46:57 18° NE 03:46:57 18° NE 03:48:44 10° NE visible
28 Feb 6.6 05:27:34 27° NW 05:27:34 27° NW 05:31:06 10° N visible
29 Feb 6.8 04:56:10 28° NNW 04:56:10 28° NNW 04:58:56 10° N visible
01 Mar 7.4 04:24:39 22° N 04:24:39 22° N 04:26:33 10° NNE visible
02 Mar 8.0 03:53:03 15° NNE 03:53:03 15° NNE 03:53:58 10° NNE visible
02 Mar 7.7 05:33:39 11° NW 05:33:39 11° NW 05:34:01 10° NNW visible
03 Mar 7.7 05:01:58 13° NNW 05:01:58 13° NNW 05:02:39 10° NNW visible
04 Mar 7.9 04:30:14 12° N 04:30:14 12° N 04:30:43 10° N visible
05 Mar 8.2 03:58:26 10° N 03:58:26 10° N 03:58:30 10° N visible
